Regional Weather Roundup
Issued by NWS Albany, NY

Home | Current Version | Previous Version | Text Only | Print | Product List | Glossary On
Versions: 1 2 3 4 5 6 7 8 9 10 11 12 13 14 15 16 17 18 19 20 21 22 23 24 25 26 27
000
ASUS41 KALY 241210
RWRALY

NEW YORK STATE HOURLY WEATHER ROUNDUP
NATIONAL WEATHER SERVICE ALBANY NY
800 AM EDT SUN SEP 24 2017

NOTE: "FAIR" INDICATES FEW OR NO CLOUDS BELOW 12,000 FEET WITH NO
SIGNIFICANT WEATHER AND/OR NO OBSTRUCTIONS TO VISIBILITY.

NYZ032-033-038>043-046>054-057>066-NYZ062>081-082-084-241300-
EAST


CITY           SKY/WX    TMP DP  RH WIND       PRES   REMARKS
ALBANY         SUNNY     63  60  90 CALM      30.12R
GLENS FALLS    SUNNY     60  57  89 CALM      30.11S
POUGHKEEPSIE   SUNNY     60  56  86 CALM      30.11R
NEWBURGH       SUNNY     63  63 100 W5        30.13R
MONTGOMERY     SUNNY     61  59  93 CALM      30.12R
WHITE PLAINS   SUNNY     73  60  63 N9        30.09R
ISLIP          SUNNY     69  65  86 N6        30.07R
NEW YORK CITY  SUNNY     73  61  65 N3        30.07R
CENTRAL PARK   SUNNY     71  62  73 CALM      30.11R
$$

NYZ005>009-017-018-044>046-055-056-241300-
CENTRAL


CITY           SKY/WX    TMP DP  RH WIND       PRES   REMARKS
FULTON         SUNNY     65  63  93 CALM      30.14S
SYRACUSE       MOSUNNY   62  61  96 CALM      30.14R
ROME           SUNNY     59  58  96 CALM      30.15
ELMIRA         CLOUDY    61  61 100 W5        30.18S FOG
BINGHAMTON     SUNNY     66  61  84 NW6       30.18S
MONTICELLO     SUNNY     66  61  84 W3        30.17R
$$

NYZ026>034-041>043-087-241300-
NORTH


CITY           SKY/WX    TMP DP  RH WIND       PRES   REMARKS
WATERTOWN      SUNNY     66  65  96 S3        30.13R FOG
FORT DRUM      NOT AVBL
OGDENSBURG     FAIR      64  63  97 CALM      30.11R FOG
MASSENA        SUNNY     68  64  87 SW6       30.10R
SARANAC LAKE   MOSUNNY   56  56 100 CALM      30.15S
PLATTSBURGH    SUNNY     64  61  90 CALM      30.08R
$$

NYZ001>004-010>016-019>021-085-241300-
WEST


CITY           SKY/WX    TMP DP  RH WIND       PRES   REMARKS
NIAGARA FALLS  CLEAR     68  63  84 CALM      30.16R
BUFFALO        CLEAR     64  60  87 S5        30.17S
DUNKIRK        CLEAR     61  59  93 SE3       30.18R
JAMESTOWN      FOG       61  61 100 S5        30.23S VSB<1/4
WELLSVILLE     FOG       63  62  97 CALM      30.26R VSB 1
ROCHESTER      CLEAR     65  64  97 SW6       30.17R
PENN YAN       SUNNY     66  62  87 SW5       30.18R
$$

             KEY
       WCI = WIND CHILL INDEX
       VSB = VISIBILITY
       HX  = HEAT INDEX
$$




USA.gov is the U.S. government's official web portal to all federal, state and local government web resources and services.